Weather History for Osceola Municipal, IA

Change the Weather History Date:

Monday, August 5, 2013

  Actual Average (KLWD) Record (KLWD)
Temperature  
Mean Temperature 72 °F 75 °F  
Max Temperature 81 °F 85 °F 98 °F (1983)
Min Temperature 64 °F 65 °F 52 °F (1948)
Degree Days  
Heating Degree Days 0 0  
Month to date heating degree days 0  
Since 1 June heating degree days 21  
Since 1 July heating degree days 2  
Cooling Degree Days 8 10  
Month to date cooling degree days 50  
Year to date cooling degree days 613  
Since 1 June cooling degree days 559  
Growing Degree Days 22 (Base 50)    
Moisture  
Dew Point 66 °F    
Average Humidity 81    
Maximum Humidity 94    
Minimum Humidity 64    
Precipitation  
Precipitation 0.00 in 0.13 in 2.06 in (1986)
Month to date precipitation 0.66  
Sea Level Pressure  
Sea Level Pressure 29.94 in    
Wind  
Wind Speed 5 mph (SSW)    
Max Wind Speed 12 mph    
Max Gust Speed 16 mph    
Visibility 9 miles    
Events Rain    
T = Trace of Precipitation, MM = Missing Value Source: NWS Daily Summary

Daily Weather History Graph

Daily Weather History Graph

Search for Another Location

Airport:

Trip Planner

Search our weather history database for the weather conditions in past years. The results will help you decide how hot, cold, wet, or windy it might be!

Date:

Astronomy

Aug. 05, 2013 Rise Set
Actual Time 6:14 AM CDT 8:26 PM CDT
Civil Twilight 5:44 AM CDT 8:56 PM CDT
Nautical Twilight 5:06 AM CDT 9:33 PM CDT
Astronomical Twilight 4:25 AM CDT 10:14 PM CDT
Moon 5:10 AM CDT (8/5) 7:26 PM CDT (8/5)
Length of Visible Light 15h 12m
Length of Day
14h 11m
Waning Crescent, 1% of the Moon is Illuminated
Aug 5
Waning Crescent
Aug 6
New
Aug 14
First Quarter
Aug 20
Full
Aug 28
Last Quarter

Hourly Weather History & Observations

Time (CDT) Temp. Heat Index Dew Point Humidity Pressure Visibility Wind Dir Wind Speed Gust Speed Precip Events Conditions
12:15 AM 70.3 °F - 61.7 °F 74% 30.06 in 10.0 mi South 4.6 mph - N/A   Overcast
12:35 AM 70.2 °F - 61.7 °F 74% 30.06 in 10.0 mi South 3.5 mph - N/A   Overcast
12:55 AM 70.2 °F - 61.9 °F 75% 30.05 in 10.0 mi South 4.6 mph - N/A   Overcast
1:15 AM 69.8 °F - 61.7 °F 75% 30.04 in 10.0 mi South 6.9 mph - N/A   Overcast
1:35 AM 69.1 °F - 61.2 °F 76% 30.04 in 10.0 mi South 6.9 mph - N/A   Mostly Cloudy
1:55 AM 69.3 °F - 60.8 °F 74% 30.03 in 10.0 mi South 8.1 mph - N/A   Mostly Cloudy
2:15 AM 68.9 °F - 60.8 °F 75% 30.03 in 10.0 mi South 5.8 mph - N/A   Overcast
2:35 AM 67.5 °F - 60.8 °F 79% 30.02 in 10.0 mi South 6.9 mph - N/A   Mostly Cloudy
2:55 AM 66.7 °F - 60.8 °F 81% 30.01 in 10.0 mi South 4.6 mph - N/A   Scattered Clouds
3:15 AM 65.8 °F - 60.8 °F 84% 30.01 in 10.0 mi South 4.6 mph - N/A   Clear
3:35 AM 65.7 °F - 60.8 °F 84% 30.00 in 10.0 mi South 4.6 mph - N/A   Clear
3:55 AM 65.5 °F - 61.0 °F 85% 30.00 in 10.0 mi South 3.5 mph - N/A   Clear
4:15 AM 64.9 °F - 60.8 °F 86% 29.99 in 10.0 mi South 4.6 mph - N/A   Clear
4:35 AM 65.3 °F - 61.2 °F 86% 29.99 in 10.0 mi South 5.8 mph - N/A   Mostly Cloudy
4:55 AM 65.7 °F - 61.5 °F 86% 29.99 in 10.0 mi South 5.8 mph - N/A   Overcast
5:15 AM 64.9 °F - 61.7 °F 89% 29.99 in 10.0 mi Calm Calm - N/A   Scattered Clouds
5:35 AM 64.6 °F - 61.7 °F 90% 29.99 in 10.0 mi South 4.6 mph - N/A   Mostly Cloudy
5:55 AM 64.8 °F - 62.1 °F 91% 29.99 in 10.0 mi South 3.5 mph - N/A   Mostly Cloudy
6:15 AM 65.5 °F - 63.0 °F 92% 29.99 in 10.0 mi Calm Calm - N/A   Overcast
6:35 AM 65.7 °F - 63.3 °F 92% 29.98 in 7.0 mi SSE 3.5 mph - N/A   Overcast
6:55 AM 66.2 °F - 64.2 °F 93% 29.98 in 3.0 mi South 6.9 mph - N/A   Overcast
7:15 AM 66.4 °F - 64.4 °F 93% 29.98 in 1.0 mi South 4.6 mph - N/A   Overcast
7:35 AM 66.4 °F - 64.6 °F 94% 29.98 in 0.8 mi SSW 8.1 mph - N/A   Overcast
7:55 AM 66.6 °F - 64.8 °F 94% 29.97 in 0.8 mi SSW 9.2 mph - N/A   Overcast
8:15 AM 67.1 °F - 65.3 °F 94% 29.97 in 0.8 mi SSW 3.5 mph - N/A   Overcast
8:35 AM 67.5 °F - 65.7 °F 94% 29.97 in 2.5 mi SSW 3.5 mph - N/A   Overcast
8:55 AM 68.5 °F - 65.8 °F 91% 29.97 in 7.0 mi SSW 5.8 mph - N/A   Overcast
9:15 AM 69.1 °F - 65.7 °F 89% 29.96 in 10.0 mi SSW 8.1 mph - N/A   Overcast
9:35 AM 69.8 °F - 65.8 °F 87% 29.95 in 10.0 mi SSW 6.9 mph - N/A   Overcast
9:55 AM 70.2 °F - 65.8 °F 86% 29.96 in 10.0 mi SSW 4.6 mph - N/A   Overcast
10:15 AM 70.7 °F - 66.0 °F 85% 29.97 in 10.0 mi SSW 8.1 mph - N/A   Overcast
10:35 AM 71.1 °F - 66.4 °F 85% 29.97 in 10.0 mi SSW 6.9 mph - N/A   Overcast
10:55 AM 71.6 °F - 66.7 °F 85% 29.98 in 10.0 mi Calm Calm - N/A   Overcast
11:15 AM 73.2 °F - 67.1 °F 81% 29.98 in 10.0 mi SW 4.6 mph - N/A   Overcast
11:35 AM 73.4 °F - 66.6 °F 79% 29.99 in 10.0 mi WSW 3.5 mph - N/A   Overcast
11:55 AM 73.4 °F - 66.7 °F 80% 29.99 in 10.0 mi Calm Calm - N/A   Overcast
12:15 PM 73.2 °F - 67.3 °F 82% 29.98 in 7.0 mi Calm Calm - N/A Rain Rain
12:35 PM 73.6 °F - 67.8 °F 82% 29.96 in 10.0 mi South 4.6 mph - N/A   Overcast
12:55 PM 74.5 °F - 67.5 °F 79% 29.97 in 10.0 mi SW 3.5 mph - N/A   Overcast
1:15 PM 74.5 °F - 67.3 °F 78% 29.95 in 10.0 mi SSW 3.5 mph - N/A   Overcast
1:35 PM 76.8 °F - 68.2 °F 75% 29.94 in 10.0 mi SSW 5.8 mph - N/A   Mostly Cloudy
1:55 PM 77.9 °F - 68.2 °F 72% 29.92 in 10.0 mi SSW 6.9 mph - N/A   Scattered Clouds
2:15 PM 78.4 °F - 68.2 °F 71% 29.91 in 10.0 mi South 8.1 mph - N/A   Scattered Clouds
2:35 PM 78.1 °F - 68.4 °F 72% 29.89 in 10.0 mi South 6.9 mph - N/A   Scattered Clouds
2:55 PM 77.5 °F - 68.0 °F 72% 29.86 in 10.0 mi SSE 8.1 mph - N/A   Clear
3:15 PM 77.9 °F - 68.4 °F 72% 29.85 in 10.0 mi South 10.4 mph - N/A   Clear
3:35 PM 78.4 °F - 68.5 °F 72% 29.85 in 10.0 mi South 6.9 mph - N/A   Clear
3:55 PM 78.8 °F - 68.4 °F 70% 29.86 in 10.0 mi SSW 11.5 mph 16.1 mph N/A   Clear
4:15 PM 79.5 °F - 68.9 °F 70% 29.86 in 10.0 mi South 6.9 mph - N/A   Clear
4:35 PM 78.8 °F - 68.2 °F 70% 29.87 in 10.0 mi South 4.6 mph - N/A   Scattered Clouds
4:55 PM 79.5 °F - 68.7 °F 69% 29.88 in 10.0 mi WSW 4.6 mph - N/A   Scattered Clouds
5:15 PM 81.0 °F 83.9 °F 68.7 °F 66% 29.88 in 10.0 mi WNW 4.6 mph - N/A   Clear
5:35 PM 81.1 °F 84.0 °F 68.5 °F 65% 29.88 in 10.0 mi West 4.6 mph - N/A   Mostly Cloudy
5:55 PM 81.3 °F 84.3 °F 68.5 °F 65% 29.88 in 10.0 mi WNW 4.6 mph - N/A   Scattered Clouds
6:15 PM 81.3 °F 84.3 °F 68.4 °F 65% 29.87 in 10.0 mi Calm Calm - N/A   Scattered Clouds
6:35 PM 81.5 °F 84.4 °F 68.4 °F 64% 29.88 in 10.0 mi Calm Calm - N/A   Clear
6:55 PM 79.9 °F - 69.3 °F 70% 29.88 in 10.0 mi Calm Calm - N/A   Scattered Clouds
7:15 PM 80.6 °F 83.8 °F 69.4 °F 69% 29.88 in 10.0 mi Calm Calm - N/A   Mostly Cloudy
7:35 PM 80.2 °F 83.2 °F 69.4 °F 69% 29.88 in 10.0 mi Calm Calm - N/A   Scattered Clouds
7:55 PM 77.9 °F - 70.0 °F 76% 29.88 in 10.0 mi Calm Calm - N/A   Clear
8:15 PM 76.8 °F - 69.8 °F 79% 29.88 in 10.0 mi Calm Calm - N/A   Scattered Clouds
8:35 PM 74.5 °F - 69.3 °F 84% 29.88 in 10.0 mi Calm Calm - N/A   Scattered Clouds
8:55 PM 73.9 °F - 69.4 °F 86% 29.89 in 10.0 mi Calm Calm - N/A   Mostly Cloudy
9:15 PM 72.7 °F - 68.9 °F 88% 29.88 in 10.0 mi Calm Calm - N/A   Mostly Cloudy
9:35 PM 72.1 °F - 68.9 °F 89% 29.88 in 10.0 mi Calm Calm - N/A   Scattered Clouds
9:55 PM 71.1 °F - 68.0 °F 90% 29.88 in 7.0 mi Calm Calm - N/A   Clear
10:15 PM 70.7 °F - 68.0 °F 91% 29.87 in 7.0 mi SSE 3.5 mph - N/A   Clear
10:35 PM 70.0 °F - 67.1 °F 91% 29.87 in 7.0 mi Calm Calm - N/A   Scattered Clouds
10:55 PM 71.4 °F - 68.4 °F 90% 29.88 in 7.0 mi Calm Calm - N/A   Overcast
11:15 PM 71.4 °F - 68.4 °F 90% 29.88 in 7.0 mi Calm Calm - N/A   Mostly Cloudy
11:35 PM 71.6 °F - 68.5 °F 90% 29.87 in 7.0 mi South 3.5 mph - N/A   Mostly Cloudy
11:55 PM 71.2 °F - 68.2 °F 90% 29.88 in 7.0 mi South 4.6 mph - N/A   Scattered Clouds